Home > Weather > São Paulo > Past weeks

Flag for Brazil Past Weather in São Paulo, São Paulo, Brazil — Yesterday and Last 2 Weeks

Now
68 °F

Broken clouds.


Feels Like: 68 °F
Forecast: 61 / 71 °F
Wind: 13 mph from Southeast

Location: Sao Paulo Airport

Current Time: May 28, 2016 at 5:12:19 PM

Latest Report: May 28, 2016 at 4:00 PM


Visibility: N/A

Pressure: 30.21 "Hg (27.63 "Hg at 765m altitude)

Humidity: 73%

Dew Point: 59 °F

Location of São PauloLocation

Past Weather in São Paulo — Graph

°F

São Paulo Temperature Yesterday

Maximum temperature yesterday: 68 °F (at 2:00 PM)
Minimum temperature yesterday: 61 °F (at 6:00 AM)
Average temperature yesterday: 63 °F

High & Low Weather Summary for the Past Weeks

 TemperatureHumidityPressure
High79 °F (May 15, 1:00 PM)94% (May 18, 8:00 AM)30.39 "Hg (May 18, 8:00 AM)
Low50 °F (May 24, 1:00 AM)42% (May 15, 3:00 PM)29.95 "Hg (May 16, 3:00 PM)
Average63 °F79%30.18 "Hg
* Reported May 13 3:00 PM — May 28 3:00 PM, São Paulo, Weather by CustomWeather, © 2016

Note: Actual official high and low records may vary slightly from our data, if they occured in-between our weather recording intervals... More about our weather records

Advertising

São Paulo Weather History for the Previous 24 Hours

Scroll right to see more
 ConditionsComfort  
Time TempWeatherWind HumidityBarometerVisibility
3:00 PM
Sat, May 28
66 °FMore clouds than sun.13 mph78%30.21 "HgN/A
2:00 PM68 °FMore clouds than sun.10 mph73%30.21 "HgN/A
1:00 PM68 °FOvercast.10 mph69%30.24 "HgN/A
12:00 PM68 °FPartly sunny.8 mph69%30.27 "HgN/A
11:00 AM66 °FBroken clouds.7 mph78%30.30 "HgN/A
10:00 AM64 °FCloudy.7 mph83%30.30 "HgN/A
9:00 AM63 °FLow clouds.5 mph88%30.30 "HgN/A
8:00 AM63 °FMore clouds than sun.6 mph88%30.30 "Hg5 mi
7:00 AM63 °FMore clouds than sun.6 mph88%30.27 "HgN/A
6:00 AM61 °FMore clouds than sun.7 mph88%30.24 "HgN/A
5:00 AM61 °FOvercast.8 mph94%30.24 "HgN/A
4:00 AM61 °FMostly cloudy.9 mph88%30.21 "HgN/A
3:00 AM61 °FOvercast.7 mph88%30.21 "HgN/A
2:00 AM61 °FMostly cloudy.7 mph88%30.24 "HgN/A
1:01 AM61 °FOvercast.7 mph88%30.24 "HgN/A
12:00 AM61 °FMostly cloudy.7 mph88%30.24 "HgN/A
11:03 PM
Fri, May 27
61 °FPartly cloudy.8 mph88%30.24 "HgN/A
10:00 PM61 °FOvercast.8 mph88%30.27 "Hg6 mi
9:00 PM61 °FLow clouds.9 mph88%30.27 "Hg5 mi
8:00 PM61 °FMostly cloudy.8 mph88%30.24 "Hg5 mi
7:00 PM63 °FMostly cloudy.10 mph83%30.24 "Hg6 mi
6:00 PM63 °FMostly cloudy.12 mph88%30.21 "Hg4 mi
5:00 PM64 °FFog.12 mph83%30.21 "Hg3 mi
Weather by CustomWeather, © 2016

See weather overviewHow to use our weather pages